Notices

What's New in latest Release from April 7th, 2021:

- Updated Glossary, including Speed of Maximum Gust, and Total Hourly Precipitation

- Updated national and regional climate services offices contacts and prices information

- Addition of station inventory lists for 1981-2010, 1971-2000, and 1961-1990 Normals.

If you haven't already, please take our survey and provide feedback about our website: https://eccc.sondage-survey.ca/f/LanguageSelection.aspx?s=442ca660-fcf1-47c0-95a9-59707d6fd709

Hourly Data Report for March 22, 2021

NANAIMO A
BRITISH COLUMBIA
Current Station Operator: NAVCAN

49°03'16.000" N
123°52'12.000" W
28.00 m
1025365
YCD

Download Data

Hourly Data (March 2021)
Hourly Data Report for March 22, 2021
TIME
LST
Temp Definition
°C
Dew Point Definition
°C
Rel Hum Definition
%
Precip. Amount Definition
mm

Wind Dir Definition
10's deg

Wind Spd Definition
km/h
Visibility Definition
km
Stn Press Definition
kPa
Hmdx Definition


Wind Chill Definition


Weather Definition


00:00 1.9 1.9 100 LegendMM 36 16 LegendMM 101.09     LegendNANA
01:00 1.7 1.6 100 LegendMM 24 5 LegendMM 101.12     LegendNANA
02:00 3.0 3.0 100 LegendMM 26 10 LegendMM 101.15     LegendNANA
03:00 3.1 1.8 91 LegendMM 27 6 LegendMM 101.21     LegendNANA
04:00 2.8 2.0 94 LegendMM 25 8 LegendMM 101.25     LegendNANA
05:00 1.9 0.4 90 LegendMM 27 9 LegendMM 101.28     LegendNANA
06:00 1.6 0.4 92 LegendMM 27 7 LegendMM 101.29     LegendNANA
07:00 0.0 -0.2 99 LegendMM 10 6 LegendMM 101.33   -2 LegendNANA
08:00 3.8 1.1 83 LegendMM 13 5 LegendMM 101.34     LegendNANA
09:00 7.8 0.1 58 LegendMM 29 12 LegendMM 101.38     LegendNANA
10:00 9.1 1.7 60 LegendMM 35 14 LegendMM 101.45     LegendNANA
11:00 10.6 2.2 56 LegendMM 3 15 LegendMM 101.49     LegendNANA
12:00 10.0 1.6 55 LegendMM 2 18 LegendMM 101.54     LegendNANA
13:00 11.2 1.3 50 LegendMM 36 12 LegendMM 101.59     LegendNANA
14:00 9.5 -0.9 48 LegendMM 35 20 LegendMM 101.61     LegendNANA
15:00 9.4 -1.4 47 LegendMM 1 21 LegendMM 101.66     LegendNANA
16:00 10.7 -0.9 44 LegendMM 35 19 LegendMM 101.71     LegendNANA
17:00 10.3 -0.4 47 LegendMM 36 14 LegendMM 101.75     LegendNANA
18:00 9.2 -0.5 50 LegendMM 34 11 LegendMM 101.85     LegendNANA
19:00 7.5 0.1 59 LegendMM 25 7 LegendMM 101.95     LegendNANA
20:00 5.7 0.7 70 LegendMM 23 8 LegendMM 102.03     LegendNANA
21:00 3.6 0.2 78 LegendMM 25 7 LegendMM 102.13     LegendNANA
22:00 2.4 0.2 85 LegendMM 23 6 LegendMM 102.23     LegendNANA
23:00 3.2 0.8 84 LegendMM 28 12 LegendMM 102.32     LegendNANA

Notes on Data Quality.

Legend

  • E = Estimated
  • M = Missing
  • NA = Not Available*
  • [empty] = Indicates an unobserved value
Date modified: